timestamp,surface_pressure_avg,surface_temp_avg,battery_voltage,lat,long
2020-04-14 00:09:01+00:00,226.7548,4.9,12.97,47.84626,-54.09684
2020-04-14 00:19:01+00:00,225.2831,4.9,12.73,47.84626,-54.09684
2020-04-14 00:29:01+00:00,226.4981,4.9,12.73,47.84626,-54.09684
2020-04-14 00:39:01+00:00,230.263,4.88,12.73,47.84626,-54.09684
2020-04-14 00:49:01+00:00,232.3298,4.8,12.73,47.84626,-54.09684
2020-04-14 00:59:01+00:00,234.3997,4.8,12.73,47.84626,-54.09684
2020-04-14 01:09:01+00:00,243.3814,4.8,12.73,47.84626,-54.09684
2020-04-14 01:19:01+00:00,250.6997,4.8,12.65,47.84626,-54.09684
2020-04-14 01:29:01+00:00,255.2665,4.7,12.65,47.84626,-54.09684
2020-04-14 01:39:01+00:00,259.4264,4.79,12.65,47.84626,-54.09684
2020-04-14 01:49:01+00:00,269.5664,4.79,12.65,47.84626,-54.09684
2020-04-14 01:59:01+00:00,277.5131,4.7,12.65,47.84626,-54.09684
2020-04-14 02:09:01+00:00,281.3447,4.72,12.65,47.84626,-54.09684
2020-04-14 02:19:01+00:00,285.2747,4.7,12.65,47.84626,-54.09684
2020-04-14 02:29:01+00:00,295.9881,4.7,12.65,47.84626,-54.09684
2020-04-14 02:39:01+00:00,303.1163,4.6,12.65,47.84626,-54.09684
2020-04-14 02:49:01+00:00,306.5363,4.46,12.65,47.84626,-54.09684
2020-04-14 02:59:01+00:00,309.1013,4.26,12.65,47.84626,-54.09684
2020-04-14 03:09:01+00:00,315.8646,4.4,12.65,47.84626,-54.09684
2020-04-14 03:19:01+00:00,318.2446,4.1,12.65,47.84626,-54.09684
2020-04-14 03:29:01+00:00,320.4496,4.02,12.65,47.84626,-54.09684
2020-04-14 03:39:01+00:00,325.048,3.48,12.65,47.84626,-54.09684
2020-04-14 03:49:01+00:00,324.7546,3.1,12.65,47.84626,-54.09684
2020-04-14 03:59:01+00:00,325.2912,3.3,12.65,47.84626,-54.09684
2020-04-14 04:09:01+00:00,328.4813,2.97,12.65,47.84626,-54.09684
2020-04-14 04:19:01+00:00,331.30800000000005,2.9,12.65,47.84626,-54.09684
2020-04-14 04:29:01+00:00,327.6281,2.8,12.65,47.84626,-54.09684
2020-04-14 04:39:01+00:00,324.6197,3.34,12.65,47.84626,-54.09684
2020-04-14 04:49:01+00:00,326.4897,4.06,12.65,47.84626,-54.09684
2020-04-14 04:59:01+00:00,326.8996,3.88,12.65,47.84626,-54.09684
2020-04-14 05:09:01+00:00,325.9997,3.69,12.65,47.84626,-54.09684
2020-04-14 05:19:01+00:00,324.1613,3.37,12.65,47.84626,-54.09684
2020-04-14 05:29:01+00:00,319.1281,3.96,12.65,47.84626,-54.09684
2020-04-14 05:39:01+00:00,315.513,4.17,12.65,47.84626,-54.09684
2020-04-14 05:49:01+00:00,311.773,4.49,12.65,47.84626,-54.09684
2020-04-14 05:59:01+00:00,310.9864,4.56,12.65,47.84626,-54.09684
2020-04-14 06:09:01+00:00,306.7147,4.46,12.65,47.84626,-54.09684
2020-04-14 06:19:01+00:00,302.4531,4.5,12.57,47.84626,-54.09684
2020-04-14 06:29:01+00:00,299.1663,4.6,12.57,47.84626,-54.09684
2020-04-14 06:39:01+00:00,292.3713,4.6,12.57,47.84626,-54.09684
2020-04-14 06:49:01+00:00,284.6597,4.6,12.57,47.84626,-54.09684
2020-04-14 06:59:01+00:00,280.3798,4.6,12.57,47.84626,-54.09684
2020-04-14 07:09:01+00:00,275.4347,4.5,12.57,47.84626,-54.09684
2020-04-14 07:19:01+00:00,268.9797,4.5,12.57,47.84626,-54.09684
2020-04-14 07:29:01+00:00,265.2031,4.3,12.57,47.84626,-54.09684
2020-04-14 07:39:01+00:00,258.1215,4.37,12.57,47.84626,-54.09684
2020-04-14 07:49:01+00:00,247.4481,4.5,12.57,47.84626,-54.09684
2020-04-14 07:59:01+00:00,237.1381,4.5,12.57,47.84626,-54.09684
2020-04-14 08:09:01+00:00,231.7048,4.53,12.57,47.84626,-54.09684
2020-04-14 08:19:01+00:00,224.8347,4.69,12.57,47.84626,-54.09684
2020-04-14 08:29:01+00:00,214.8765,4.75,12.57,47.84626,-54.09684
2020-04-14 08:39:01+00:00,211.1881,4.7,12.57,47.84626,-54.09684
2020-04-14 08:49:01+00:00,211.8914,4.7,12.57,47.84626,-54.09684
2020-04-14 08:59:01+00:00,204.9981,4.73,12.57,47.84626,-54.09684
2020-04-14 09:09:01+00:00,199.4532,4.74,12.57,47.84626,-54.09684
2020-04-14 09:19:01+00:00,202.0547,4.7,12.57,47.84626,-54.09684
2020-04-14 09:29:01+00:00,202.2881,4.74,12.57,47.84626,-54.09684
2020-04-14 09:39:01+00:00,197.9048,4.72,12.57,47.84626,-54.09684
2020-04-14 09:49:01+00:00,195.5265,4.73,12.57,47.84626,-54.09684
2020-04-14 09:59:01+00:00,198.8098,4.73,12.57,47.84626,-54.09684
2020-04-14 10:09:01+00:00,202.9231,4.75,12.57,47.84626,-54.09684
2020-04-14 10:19:01+00:00,203.8864,4.76,12.57,47.84626,-54.09684
2020-04-14 10:29:01+00:00,203.4431,4.72,12.57,47.84626,-54.09684
2020-04-14 10:39:01+00:00,206.9981,4.7,12.57,47.84626,-54.09684
2020-04-14 10:49:01+00:00,214.3998,4.73,12.57,47.84626,-54.09684
2020-04-14 10:59:01+00:00,218.9514,4.6,12.57,47.84626,-54.09684
2020-04-14 11:09:01+00:00,220.2898,4.63,12.57,47.84626,-54.09684
2020-04-14 11:19:01+00:00,220.3331,4.7,12.57,47.84626,-54.09684
2020-04-14 11:29:01+00:00,220.4331,4.7,12.57,47.84626,-54.09684
2020-04-14 11:39:01+00:00,217.7214,4.7,12.57,47.84626,-54.09684
2020-04-14 11:49:01+00:00,214.6064,4.7,12.57,47.84626,-54.09684
2020-04-14 11:59:01+00:00,216.9447,4.6,12.57,47.84626,-54.09684
2020-04-14 12:09:01+00:00,222.0131,4.57,12.57,47.84626,-54.09684
2020-04-14 12:19:01+00:00,223.2014,4.6,12.57,47.84626,-54.09684
2020-04-14 12:29:01+00:00,225.8131,4.6,12.57,47.84626,-54.09684
2020-04-14 12:39:01+00:00,229.0514,4.5,12.57,47.84626,-54.09684
2020-04-14 12:49:01+00:00,232.6114,4.47,12.57,47.84626,-54.09684
2020-04-14 12:59:01+00:00,233.6864,4.2,12.57,47.84626,-54.09684
2020-04-14 13:09:01+00:00,238.4248,3.9,12.57,47.84626,-54.09684
2020-04-14 13:19:01+00:00,245.0747,3.97,12.57,47.84626,-54.09684
2020-04-14 13:29:01+00:00,247.8347,3.99,12.57,47.84626,-54.09684
2020-04-14 13:39:01+00:00,245.8564,3.99,12.57,47.84626,-54.09684
2020-04-14 13:49:01+00:00,245.0831,4.0,12.57,47.84626,-54.09684
2020-04-14 13:59:01+00:00,246.8281,4.0,12.57,47.84626,-54.09684
2020-04-14 14:09:01+00:00,253.1364,3.8,12.57,47.84626,-54.09684
2020-04-14 14:19:01+00:00,263.5331,3.78,12.65,47.84626,-54.09684
2020-04-14 14:29:01+00:00,273.5798,3.97,12.65,47.84626,-54.09684
2020-04-14 14:39:01+00:00,281.8347,4.04,12.65,47.84626,-54.09684
2020-04-14 14:49:01+00:00,290.313,4.1,12.65,47.84626,-54.09684
2020-04-14 14:59:01+00:00,296.3647,4.2,12.65,47.84626,-54.09684
2020-04-14 15:09:01+00:00,297.0447,4.31,12.65,47.84626,-54.09684
2020-04-14 15:19:01+00:00,297.343,4.45,12.65,47.84626,-54.09684
2020-04-14 15:29:01+00:00,301.1947,4.58,12.65,47.84626,-54.09684
2020-04-14 15:39:01+00:00,300.5547,4.47,12.65,47.84626,-54.09684
2020-04-14 15:49:01+00:00,301.8314,4.4,12.65,47.84626,-54.09684
2020-04-14 15:59:01+00:00,305.413,4.4,12.65,47.84626,-54.09684
2020-04-14 16:09:01+00:00,308.0997,4.3,12.65,47.84626,-54.09684
2020-04-14 16:19:01+00:00,306.9163,4.2,12.73,47.84626,-54.09684
2020-04-14 16:29:01+00:00,312.1546,4.0,12.73,47.84626,-54.09684
2020-04-14 16:39:01+00:00,312.4531,4.03,12.73,47.84626,-54.09684
2020-04-14 16:49:01+00:00,309.0146,4.1,12.73,47.84626,-54.09684
2020-04-14 16:59:01+00:00,304.5813,4.19,12.73,47.84626,-54.09684
2020-04-14 17:09:01+00:00,306.958,4.1,12.73,47.84626,-54.09684
2020-04-14 17:19:01+00:00,303.7013,4.16,12.97,47.84626,-54.09684
2020-04-14 17:29:01+00:00,296.983,4.2,12.97,47.84626,-54.09684
2020-04-14 17:39:01+00:00,298.8746,3.7,12.97,47.84626,-54.09684
2020-04-14 17:49:01+00:00,304.8464,3.94,12.97,47.84626,-54.09684
2020-04-14 17:59:01+00:00,302.2764,4.2,12.97,47.84626,-54.09684
2020-04-14 18:09:01+00:00,298.20799999999997,4.3,12.97,47.84626,-54.09684
2020-04-14 18:19:01+00:00,298.728,4.3,13.13,47.84626,-54.09684
2020-04-14 18:29:01+00:00,297.2964,4.39,13.13,47.84626,-54.09684
2020-04-14 18:39:01+00:00,289.3864,4.48,13.13,47.84626,-54.09684
2020-04-14 18:49:01+00:00,286.8597,4.6,13.13,47.84626,-54.09684
2020-04-14 18:59:01+00:00,285.563,4.6,13.13,47.84626,-54.09684
2020-04-14 19:09:01+00:00,278.3814,4.66,13.13,47.84626,-54.09684
2020-04-14 19:19:01+00:00,270.6147,4.66,13.05,47.84626,-54.09684
2020-04-14 19:29:01+00:00,268.3963,4.66,13.05,47.84626,-54.09684
2020-04-14 19:39:01+00:00,260.8547,4.7,13.05,47.84626,-54.09684
2020-04-14 19:49:01+00:00,248.1631,4.7,13.05,47.84626,-54.09684
2020-04-14 19:59:01+00:00,243.3881,4.64,13.05,47.84626,-54.09684
2020-04-14 20:09:01+00:00,240.5648,4.6,13.05,47.84626,-54.09684
2020-04-14 20:19:01+00:00,232.3431,4.6,13.05,47.84626,-54.09684
2020-04-14 20:29:01+00:00,225.6948,4.6,13.05,47.84626,-54.09684
2020-04-14 20:39:01+00:00,224.1315,4.6,13.05,47.84626,-54.09684
2020-04-14 20:49:01+00:00,220.4948,4.6,13.05,47.84626,-54.09684
2020-04-14 20:59:01+00:00,214.5698,4.69,13.05,47.84626,-54.09684
2020-04-14 21:09:01+00:00,212.8031,4.7,13.05,47.84626,-54.09684
2020-04-14 21:19:01+00:00,211.5714,4.7,12.89,47.84626,-54.09684
2020-04-14 21:29:01+00:00,207.2281,4.69,12.89,47.84626,-54.09684
2020-04-14 21:39:01+00:00,204.0581,4.69,12.89,47.84626,-54.09684
2020-04-14 21:49:01+00:00,205.6948,4.69,12.89,47.84626,-54.09684
2020-04-14 21:59:01+00:00,208.6181,4.62,12.89,47.84626,-54.09684
2020-04-14 22:09:01+00:00,207.2081,4.6,12.89,47.84626,-54.09684
2020-04-14 22:19:01+00:00,205.1215,4.5,12.73,47.84626,-54.09684
2020-04-14 22:29:01+00:00,207.6631,4.59,12.73,47.84626,-54.09684
2020-04-14 22:39:01+00:00,210.6864,4.6,12.73,47.84626,-54.09684
2020-04-14 22:49:01+00:00,211.4381,4.4,12.73,47.84626,-54.09684
2020-04-14 22:59:01+00:00,212.1865,4.5,12.73,47.84626,-54.09684
2020-04-14 23:09:01+00:00,214.6515,4.5,12.73,47.84626,-54.09684
2020-04-14 23:19:01+00:00,215.7864,4.27,12.65,47.84626,-54.09684
2020-04-14 23:29:01+00:00,217.5464,4.0,12.65,47.84626,-54.09684
2020-04-14 23:39:01+00:00,218.0531,4.0,12.65,47.84626,-54.09684
2020-04-14 23:49:01+00:00,219.4947,4.0,12.65,47.84626,-54.09684
2020-04-14 23:59:01+00:00,219.9798,4.0,12.65,47.84626,-54.09684
